Content
SEND FEEDBACK

Daily
Averages
Monthly
Summary
Ghana

ACCRA, GHANA


Home > Africa > Ghana
Elevation: 226 feet     Latitude: 05 36N     Longitude: 000 10W

WEATHER
 
SELECT A DAY
Number of Records: 90,608;   Date Range: 7/1/96 - 7/20/14
 
SHARE

PRINT THIS DATA

[ ← Previous Day ]
WEATHER ALMANAC - JANUARY 3, 2013
[ Next Day → ]
[ °C ]   °F
Weather ElementAverageHighLow
Temperature81.8 °F91.4 °F (12:52 pm)75.2 °F (5:00 am)
Dewpoint65.7 °F75.2 °F (7:53 pm)60.8 °F (10:50 am)
Humidity58.5 %84 % (9:58 pm)38 % (12:00 pm)
Barometer29.90 in29.96 in (9:00 am)29.83 in (3:00 pm)
Wind Speed6.4 mph11.5 mph (1:50 pm)
Weather ElementAverage
Visibility4.9 mi
Wind DirectionSSW (203.9 °)

Weather ElementTotal
Precipitation---
Cooling Degree Days18.3 (Base 65)
Growing Degree Days33.3 (Base 50)
Averaged from 28 records on January 3, 2013
WEATHER CONDITIONS BREAKOUT
WIND DIRECTION BREAKOUT
WEATHER BY HOUR - JANUARY 3, 2013
[ °C ]   °F
Local TimeTemperatureDewpointHumidityBarometerVisibilityWind DirectionWind SpeedGust SpeedPrecipitationEventsConditions
12:00 AM78.8 °F66.2 °F65 %29.89 inWNW (290°)4.6 mphClear
1:00 AM78.8 °F64.4 °F61 %29.89 in5.0 miWest (270°)5.8 mph
1:30 AM78.8 °F64.4 °F61 %29.89 in5.0 miWest (280°)6.9 mph
2:00 AM77.0 °F64.4 °F65 %29.89 in5.0 miWest (270°)5.8 mph
2:30 AM77.0 °F64.4 °F65 %29.86 in5.0 miWest (260°)6.9 mph
3:00 AM78.8 °F62.6 °F57 %29.89 in5.0 miWest (270°)6.9 mph
4:00 AM77.0 °F62.6 °F61 %29.89 in5.6 miWest (270°)5.8 mph
5:00 AM75.2 °F62.6 °F65 %29.89 in6.2 miWest (260°)8.1 mph
6:00 AM76.0 °F65.0 °F60 %29.92 in5.0 miWest (270°)5.8 mphHaze
6:00 AM75.2 °F62.6 °F65 %29.89 in5.6 miWNW (290°)8.1 mph
7:00 AM77.0 °F64.4 °F65 %29.92 in4.3 miWest (280°)6.9 mph
8:00 AM78.8 °F62.6 °F57 %29.95 in3.7 miNW (310°)4.6 mph
9:00 AM83.0 °F63.0 °F42 %29.96 in2.0 miNorth4.6 mphHaze
9:00 AM82.4 °F62.6 °F51 %29.95 in2.5 miNorth (360°)6.9 mphHaze
9:51 AM86.0 °F62.6 °F45 %29.95 in5.6 miNNE (20°)6.9 mph
10:50 AM87.8 °F60.8 °F40 %29.95 inNE (50°)5.8 mphClear
12:00 PM89.6 °F60.8 °F38 %29.92 in5.6 miNNE (30°)8.1 mph
12:52 PM91.4 °F64.4 °F41 %29.89 inVariable4.6 mphClear
1:50 PM87.8 °F64.4 °F46 %29.86 inSE (140°)11.5 mphClear
3:00 PM87.8 °F66.2 °F49 %29.83 inSSE (150°)8.1 mphClear
4:00 PM86.0 °F68.0 °F55 %29.83 in5.6 miSouth (170°)8.1 mph
5:00 PM86.0 °F66.2 °F51 %29.83 in5.6 miSouth (180°)5.8 mph
6:00 PM84.2 °F66.2 °F55 %29.86 inSouth (190°)8.1 mphClear
7:00 PM82.4 °F69.8 °F66 %29.89 inSSW (200°)6.9 mphClear
7:53 PM82.4 °F75.2 °F79 %29.92 inSouth (190°)5.8 mphClear
9:00 PM83.0 °F74.0 °F66 %29.95 in6.0 miSW (230°)4.6 mphClear
9:58 PM80.6 °F75.2 °F84 %29.95 inSSW (210°)4.6 mphClear
10:53 PM80.6 °F75.2 °F84 %29.95 inWest (270°)3.5 mphClear
Hourly data recorded from DGAA, located miles away from Accra, Ghana







STORIES FROM OUR PARTNERS